Stations météo

réclame
Mon MeteoGroup
Ramstein, Allemagne (10614): Température de l'air & dewpoint: 18.05.2019 03:00:00 - 24.05.2019 03:00:00 (CEST)Ramstein, Allemagne (10614): Vitesse du vent: 18.05.2019 03:00:00 - 24.05.2019 03:00:00 (CEST)Ramstein, Allemagne (10614): Direction du vent: 18.05.2019 03:00:00 - 24.05.2019 03:00:00 (CEST)Ramstein, Allemagne (10614): reduced air pressure: 18.05.2019 03:00:00 - 24.05.2019 03:00:00 (CEST)Ramstein, Allemagne (10614): visibility: 18.05.2019 03:00:00 - 24.05.2019 03:00:00 (CEST)Ramstein, Allemagne (10614): Quantités de précipitations: 18.05.2019 03:00:00 - 24.05.2019 03:00:00 (CEST)
Date & Time tt [°C] td [°C] ff [km/h] ff [knt] dd ppp [hPa] vv [km] rr [mm]
24.05.2019 03:00:00 10,2 8,6 0 0 N 1016,0 10 -
24.05.2019 02:00:00 9,6 8,7 5 3 E 1016,3 10 -
24.05.2019 01:00:00 10,3 8,4 0 0 N 1016,7 10 -
24.05.2019 00:00:00 8,8 8,2 0 0 N 1017,1 10 -
23.05.2019 23:00:00 10,5 9,1 0 0 N 1017,1 10 -
23.05.2019 22:00:00 12,5 9,0 0 0 N 1016,7 10 -
23.05.2019 21:00:00 16,6 8,5 5 3 ESE 1016,7 10 -
23.05.2019 20:00:00 19,5 8,5 9 5 ENE 1016,7 10 -
23.05.2019 19:00:00 20,8 8,7 11 6 ENE 1016,8 10 -
23.05.2019 18:00:00 21,2 8,8 8 4 N 1017,2 10 -
23.05.2019 17:00:00 21,2 9,1 8 4 ENE 1017,6 10 -
23.05.2019 16:00:00 20,7 8,0 0 0 N 1017,9 10 -
23.05.2019 15:00:00 19,6 7,7 9 5 NNW 1018,7 10 -
23.05.2019 14:00:00 19,5 7,9 0 0 N 1018,9 10 -
23.05.2019 13:00:00 18,1 7,5 5 3 N 1019,7 10 -
23.05.2019 12:00:00 18,0 7,7 5 3 WSW 1020,0 10 -
23.05.2019 11:00:00 17,5 8,4 5 3 N 1020,2 10 -
23.05.2019 10:00:00 14,6 9,4 0 0 N 1020,6 10 -
23.05.2019 09:00:00 10,8 8,4 0 0 N 1020,7 10 -
23.05.2019 08:00:00 7,7 6,6 0 0 N 1020,7 10 -
23.05.2019 07:00:00 5,5 5,4 0 0 N 1020,4 10 -
23.05.2019 06:00:00 4,1 4,0 0 0 N 1020,5 10 -
23.05.2019 05:00:00 3,4 3,3 0 0 N 1020,8 10 -
23.05.2019 04:00:00 4,3 4,2 0 0 N 1020,8 10 -
23.05.2019 03:00:00 4,6 4,5 0 0 N 1020,8 10 -
23.05.2019 02:00:00 5,7 5,6 0 0 N 1021,1 10 -
23.05.2019 01:00:00 6,2 5,9 0 0 N 1020,9 10 -
23.05.2019 00:00:00 7,0 6,6 0 0 N 1020,9 10 -
22.05.2019 23:00:00 8,1 7,7 0 0 N 1020,6 10 -
22.05.2019 22:00:00 10,3 8,4 0 0 N 1020,5 10 -
22.05.2019 21:00:00 13,8 8,4 5 3 ENE 1020,0 10 -
22.05.2019 20:00:00 16,9 6,7 9 5 NE 1019,6 10 -
22.05.2019 19:00:00 18,1 6,9 11 6 NNE 1019,6 10 -
22.05.2019 18:00:00 18,8 6,3 11 6 N 1019,1 10 -
22.05.2019 17:00:00 19,1 6,9 9 5 WNW 1019,1 10 -
22.05.2019 16:00:00 17,6 6,8 13 7 N 1019,2 10 -
22.05.2019 15:00:00 16,7 8,6 5 3 ENE 1019,5 10 -
22.05.2019 14:00:00 16,9 9,6 9 5 N 1019,5 10 -
22.05.2019 13:00:00 14,7 9,9 9 5 WSW 1019,9 10 -
22.05.2019 12:00:00 13,0 9,3 0 0 N 1019,9 10 -
22.05.2019 11:00:00 12,2 9,4 9 5 WSW 1020,0 10 -
22.05.2019 10:00:00 11,3 9,4 11 6 W 1019,8 10 -
22.05.2019 09:00:00 10,1 9,2 8 4 W 1019,4 10 -
22.05.2019 08:00:00 9,2 8,4 5 3 W 1019,1 10 -
22.05.2019 07:00:00 8,7 8,4 8 4 WSW 1018,8 10 -
22.05.2019 06:00:00 8,4 8,4 5 3 W 1018,5 9 -
22.05.2019 05:00:00 8,4 8,4 9 5 W 1017,8 10 -
22.05.2019 04:00:00 8,9 8,9 11 6 W 1017,7 10 -
22.05.2019 03:00:00 10,0 10,0 8 4 W 1017,6 10 -
22.05.2019 02:00:00 10,6 10,6 0 0 N 1017,3 8 -
22.05.2019 01:00:00 10,5 10,3 0 0 N 1017,3 8 0,0
22.05.2019 00:00:00 11,2 11,0 0 0 N 1017,3 10 0,0
21.05.2019 23:00:00 11,0 11,0 0 0 N 1017,3 10 0,5
21.05.2019 22:00:00 11,9 11,1 5 3 SSW 1017,0 10 0,3
21.05.2019 21:00:00 11,9 11,6 8 4 SSW 1016,3 10 0,5
21.05.2019 20:00:00 12,1 11,6 9 5 WSW 1015,6 10 0,8
21.05.2019 19:00:00 12,2 11,6 11 6 WSW 1015,2 10 0,8
21.05.2019 18:00:00 12,5 11,7 15 8 W 1015,2 10 0,5
21.05.2019 17:00:00 12,5 11,7 15 8 W 1014,8 10 1,3
21.05.2019 16:00:00 12,6 11,8 15 8 W 1014,1 10 1,8
21.05.2019 15:00:00 13,0 12,4 16 9 W 1013,4 10 1,5
21.05.2019 14:00:00 12,8 12,2 15 8 WSW 1013,1 10 1,8
21.05.2019 13:00:00 12,5 11,9 16 9 W 1012,4 9 2,8
21.05.2019 12:00:00 12,3 11,7 13 7 WSW 1011,7 8 3,0
21.05.2019 11:00:00 12,0 11,7 15 8 WSW 1011,4 8 4,1
21.05.2019 10:00:00 11,9 11,4 15 8 WSW 1010,7 5 4,3
21.05.2019 09:00:00 12,0 11,2 11 6 WSW 1009,7 10 1,0
21.05.2019 08:00:00 12,2 10,9 15 8 W 1009,7 10 0,0
21.05.2019 07:00:00 12,1 10,5 16 9 WSW 1009,0 10 0,0
21.05.2019 06:00:00 12,0 10,4 13 7 WSW 1009,0 10 0,0
21.05.2019 05:00:00 12,1 10,3 21 11 W 1008,5 10 0,0
21.05.2019 04:00:00 12,0 11,0 16 9 WSW 1008,5 10 0,0
21.05.2019 03:00:00 12,7 10,2 13 7 WSW 1008,8 10 -
21.05.2019 02:00:00 12,9 10,6 11 6 WSW 1008,8 10 -
21.05.2019 01:00:00 12,8 11,0 11 6 W 1008,8 10 -
21.05.2019 00:00:00 13,2 10,9 21 11 W 1008,5 10 -
20.05.2019 23:00:00 13,8 11,5 16 9 W 1008,5 10 -
20.05.2019 22:00:00 14,3 12,2 15 8 WNW 1008,2 10 -
20.05.2019 21:00:00 14,3 13,3 8 4 NNW 1007,6 10 -
20.05.2019 20:00:00 14,6 13,3 0 0 N 1007,2 10 0,0
20.05.2019 19:00:00 14,7 12,6 5 3 SW 1006,6 10 2,0
20.05.2019 18:00:00 15,3 12,2 5 3 NNW 1007,1 10 0,0
20.05.2019 17:00:00 17,2 12,1 15 8 NNW 1006,3 10 0,0
20.05.2019 16:00:00 17,8 11,8 15 8 NNW 1006,2 10 -
20.05.2019 15:00:00 17,2 11,5 13 7 NW 1006,6 10 -
20.05.2019 14:00:00 17,7 11,7 13 7 NW 1006,2 10 -
20.05.2019 13:00:00 17,1 11,8 11 6 WNW 1005,9 10 -
20.05.2019 12:00:00 17,1 11,8 13 7 N 1005,7 10 -
20.05.2019 11:00:00 15,5 11,1 13 7 NNW 1005,9 10 -
20.05.2019 10:00:00 14,6 11,7 9 5 W 1005,5 10 -
20.05.2019 09:00:00 13,4 11,1 5 3 WNW 1005,4 10 -
20.05.2019 08:00:00 11,8 11,8 8 4 W 1004,7 10 -
20.05.2019 07:00:00 9,7 9,7 0 0 N 1004,3 10 -
20.05.2019 06:00:00 9,2 9,2 5 3 WSW 1004,4 9 -
20.05.2019 05:00:00 9,2 9,2 8 4 W 1004,4 9 -
20.05.2019 04:00:00 9,4 9,4 0 0 N 1004,4 8 -
20.05.2019 03:00:00 9,6 9,6 0 0 N 1004,4 10 -
20.05.2019 02:00:00 9,2 9,2 0 0 N 1004,6 5 -
20.05.2019 01:00:00 10,1 10,1 5 3 SSW 1004,6 9 -
20.05.2019 00:00:00 12,1 11,6 8 4 SW 1004,6 10 -
19.05.2019 23:00:00 12,8 11,4 5 3 SW 1004,9 10 0,5
19.05.2019 22:00:00 13,6 12,2 18 10 WSW 1004,9 5 2,8
19.05.2019 21:00:00 16,0 14,4 8 4 W 1003,8 10 -
19.05.2019 20:00:00 17,3 14,9 5 3 SSE 1003,5 10 0,3
19.05.2019 19:00:00 21,3 11,3 5 3 SSW 1002,9 10 0,0
19.05.2019 18:00:00 21,4 11,4 0 0 N 1003,0 10 -
19.05.2019 17:00:00 20,9 11,5 9 5 W 1003,6 10 -
19.05.2019 16:00:00 20,1 12,1 9 5 WNW 1004,0 10 -
19.05.2019 15:00:00 19,1 12,1 9 5 SW 1004,4 10 -
19.05.2019 14:00:00 17,6 12,1 5 3 WSW 1004,7 10 -
19.05.2019 13:00:00 15,8 12,5 5 3 SW 1005,2 10 -
19.05.2019 12:00:00 13,9 12,9 8 4 W 1005,3 10 0,3
19.05.2019 11:00:00 12,7 12,7 9 5 WSW 1005,6 9 1,5
19.05.2019 10:00:00 12,0 12,0 0 0 N 1005,6 10 0,0
19.05.2019 09:00:00 11,4 11,4 0 0 N 1005,7 10 -
19.05.2019 08:00:00 10,0 10,0 5 3 E 1005,3 8 -
19.05.2019 07:00:00 10,1 10,1 0 0 N 1005,3 5 -
19.05.2019 06:00:00 9,0 9,0 0 0 N 1005,3 1,4 -
19.05.2019 05:00:00 10,0 10,0 0 0 N 1004,9 0,4 -
19.05.2019 04:00:00 11,0 11,0 5 3 WSW 1005,1 8 -
19.05.2019 03:00:00 11,9 11,7 0 0 N 1005,0 10 0,0
19.05.2019 02:00:00 12,1 11,5 0 0 N 1005,4 10 -
19.05.2019 01:00:00 11,9 11,4 0 0 N 1005,7 10 0,3
19.05.2019 00:00:00 12,3 11,4 0 0 N 1006,1 10 0,0
18.05.2019 23:00:00 12,9 10,6 8 4 NNE 1006,5 10 0,0
18.05.2019 22:00:00 13,6 10,6 8 4 WSW 1006,4 10 0,0
18.05.2019 21:00:00 13,5 10,3 13 7 S 1006,2 10 -
18.05.2019 20:00:00 15,1 11,3 5 3 SW 1005,3 10 -
18.05.2019 19:00:00 16,0 12,0 9 5 SSW 1004,9 10 -
18.05.2019 18:00:00 15,8 13,1 16 9 W 1004,9 10 -
18.05.2019 17:00:00 16,0 13,0 13 7 W 1004,6 10 0,8
18.05.2019 16:00:00 19,8 10,2 0 0 N 1004,5 10 -
18.05.2019 15:00:00 20,1 10,2 8 4 NE 1004,8 10 -
18.05.2019 14:00:00 18,3 10,6 13 7 NNE 1005,2 10 -
18.05.2019 13:00:00 18,2 10,8 9 5 ENE 1005,5 10 -
18.05.2019 12:00:00 17,3 10,9 0 0 N 1005,7 10 -
18.05.2019 11:00:00 15,5 10,7 0 0 N 1006,2 10 -
18.05.2019 10:00:00 14,9 10,7 0 0 N 1006,2 10 -
18.05.2019 09:00:00 14,0 10,6 0 0 N 1005,7 10 -
18.05.2019 08:00:00 11,8 10,2 8 4 SW 1005,7 10 -
18.05.2019 07:00:00 9,9 9,4 0 0 N 1005,9 10 -
18.05.2019 06:00:00 9,1 8,3 0 0 N 1005,5 10 -
18.05.2019 05:00:00 9,3 8,5 0 0 N 1005,5 10 -
18.05.2019 04:00:00 8,0 7,7 0 0 N 1005,9 10 -
18.05.2019 03:00:00 8,8 8,2 0 0 N 1005,9 10 -

tt = Température de l'air
td = dewpoint
ff = Vitesse du vent
dd = Direction du vent
ppp = reduced air pressure
vv = visibility
rr = Quantités de précipitations

stations d'obs. à proximité